RH
7 7 7 7 7 8 9 9 9 9 8 8 10 21 43 54 56 60 58 60 64 72 68 51 41 29 17 16 13 13 13 13 14
9 9 9 8 8 7 7 7 7 7 7 8 9 9 9 10 25 35 44 50 64 60 67 71 67 52 38 23 14 15 14 13 14
10 10 10 10 10 8 6 6 6 6 8 10 10 9 9 9 9 10 11 21 48 67 61 64 73 74 69 48 35 15 16 14 14
12 10 7 5 4 4 4 5 5 5 5 5 6 7 10 11 11 10 9 9 11 24 58 61 60 68 78 79 68 42 17 18 15
6 4 3 3 4 5 6 6 6 6 8 9 10 9 8 8 8 9 10 11 10 10 17 41 41 50 63 75 82 79 47 18 20
2 3 4 5 6 6 7 7 8 10 12 11 10 9 9 9 9 8 8 8 9 10 12 16 39 25 52 66 72 82 82 48 17
3 4 5 6 7 8 8 10 12 12 9 8 9 9 9 9 9 9 9 10 10 11 10 10 28 51 47 54 69 75 85 83 42
5 6 6 8 9 9 10 12 12 11 9 8 8 8 8 8 7 7 7 8 9 10 10 11 12 26 61 59 58 70 84 91 87
7 8 9 10 10 10 11 11 11 11 10 9 9 9 9 9 9 9 9 10 11 11 12 13 15 16 19 65 68 65 76 90 94
10 11 11 11 10 10 10 11 10 10 10 10 10 9 10 10 10 10 11 12 16 20 22 24 25 27 27 23 64 81 74 82 97
12 11 10 9 9 9 8 8 8 8 8 8 8 8 9 9 10 11 13 18 25 26 24 23 24 26 26 31 28 68 76 76 82
10 7 6 6 7 8 9 10 10 10 10 10 10 10 9 10 12 14 16 27 23 30 32 32 31 32 35 33 29 29 66 94 96
7 7 8 9 8 8 8 9 10 11 12 12 12 11 11 11 13 16 25 26 33 42 43 38 32 30 34 36 32 28 33 76 99
9 10 9 8 7 8 11 15 21 29 37 39 36 30 17 11 14 17 32 35 42 57 37 32 44 46 47 43 35 30 42 54 92
10 9 8 8 9 10 12 16 32 37 42 44 42 40 22 13 15 20 36 48 55 61 53 52 53 54 60 55 36 39 46 40 77
9 10 11 12 13 13 12 13 21 33 33 39 41 40 23 14 17 22 44 52 59 66 67 64 84 84 91 75 52 65 59 46 53
21 23 23 23 23 24 24 16 14 21 20 28 36 39 29 16 15 24 42 58 54 56 77 65 86 94 88 69 64 57 71 39 66
33 36 37 30 20 17 20 23 17 17 22 30 33 37 36 30 16 19 34 51 61 60 68 65 84 96 96 96 81 75 77 60 35
22 26 28 30 35 23 17 17 20 22 25 28 33 38 38 36 27 20 25 31 94 68 73 81 77 99 88 94 90 78 86 49 40
35 32 33 31 31 27 20 18 17 17 19 22 28 36 37 38 35 22 17 34 42 70 64 84 97 93 87 84 96 71 70 88 83
Wind_Speed
21 20 21 21 21 21 21 21 22 22 22 23 23 23 22 21 21 20 19 19 20 17 18 18 17 17 19 20 20 20 20 20 19
18 17 17 16 17 17 17 18 18 20 21 23 24 24 25 25 25 24 23 22 21 22 22 21 21 20 20 20 22 22 22 22 22
14 13 13 12 11 11 12 13 14 16 17 19 21 22 24 25 26 26 27 25 25 24 25 24 24 24 23 22 22 22 24 24 23
10 9 9 10 12 13 14 15 16 16 16 17 17 19 20 21 24 25 26 27 27 28 28 28 28 28 27 26 25 23 23 26 25
12 12 13 12 13 14 14 15 16 16 16 17 18 19 20 21 23 24 26 28 30 30 31 32 33 32 31 30 29 28 26 25 27
13 14 13 13 14 15 16 16 16 17 19 20 20 20 21 22 23 25 28 28 29 31 33 34 33 35 35 34 33 32 31 28 27
14 13 13 14 15 17 17 17 19 20 20 18 18 20 21 22 24 25 28 30 30 33 36 37 36 36 38 39 37 36 34 32 30
13 13 14 15 17 18 18 19 19 19 19 18 19 20 22 23 24 26 28 31 34 36 38 40 42 41 39 43 42 40 38 36 33
13 13 15 16 18 19 19 19 19 19 20 20 21 22 23 24 25 26 28 30 34 37 41 44 45 45 46 44 46 44 42 40 37
13 14 16 17 18 19 19 19 19 20 20 21 22 23 24 25 25 26 28 29 32 37 41 45 47 48 49 50 49 46 46 44 41
14 16 18 19 19 20 20 20 20 21 21 23 23 23 24 24 25 27 27 30 34 35 38 41 44 48 50 50 52 49 48 48 46
16 17 18 18 19 19 20 20 20 20 21 22 22 23 23 23 24 26 29 33 30 31 31 34 38 43 44 45 48 54 63 51 47
16 16 17 19 19 20 21 21 21 21 22 23 23 24 23 22 23 25 30 30 30 29 28 28 32 35 37 40 45 51 61 45 38
16 17 19 20 21 20 21 22 22 20 20 22 23 23 22 20 21 25 28 27 27 26 25 25 27 25 25 31 37 47 55 59 41
18 20 21 21 22 22 23 23 23 23 21 20 23 22 21 20 20 23 25 24 25 24 21 22 20 15 12 14 24 36 45 57 52
20 21 23 24 25 25 24 23 23 23 23 21 20 23 21 19 20 22 21 21 21 21 20 21 16 16 5 1 1 8 20 36 49
20 21 22 24 25 25 24 23 23 24 26 25 22 18 18 16 18 20 20 18 19 19 16 18 16 14 11 5 10 1 9 22 23
20 20 21 22 23 24 24 23 23 23 26 25 24 22 19 14 15 17 19 17 15 17 17 10 11 11 9 1 1 2 9 10 24
26 26 27 26 25 25 24 23 23 23 22 23 23 23 22 19 10 13 17 16 11 12 16 10 10 16 7 2 6 1 5 5 30
26 26 27 27 25 25 25 24 23 23 23 22 22 22 23 21 20 13 12 15 16 13 13 13 6 9 10 9 3 2 3 4 5
Wind_Direction
293 288 285 284 282 280 278 277 275 274 273 272 271 270 271 274 273 273 273 271 273 273 274 274 272 270 266 261 254 252 249 247 245
296 291 289 287 285 285 284 283 282 280 278 276 274 274 272 271 272 274 272 272 270 268 268 269 271 269 268 270 263 255 252 248 247
300 295 295 294 295 295 294 292 289 287 286 282 279 277 276 276 275 274 274 272 269 269 269 267 266 267 266 266 267 264 255 252 248
307 304 303 299 297 297 295 294 292 290 288 289 289 285 281 279 277 275 274 271 267 264 265 264 264 265 266 266 263 261 260 253 251
306 303 302 300 298 298 296 292 291 293 294 294 292 289 286 284 283 283 280 277 275 272 267 267 264 262 260 261 263 261 256 254 250
301 301 300 300 300 302 300 300 298 297 296 295 292 293 292 292 291 290 287 286 284 281 274 269 266 266 263 258 257 258 259 254 247
303 301 300 302 306 306 304 301 299 299 297 294 293 293 294 294 294 293 290 289 284 278 275 271 264 258 258 257 255 253 253 255 252
301 299 301 302 305 304 303 302 300 300 300 300 300 300 300 299 298 295 292 288 283 280 275 271 266 258 251 253 251 250 249 248 249
305 304 303 305 306 305 304 304 304 305 306 306 306 307 305 303 301 297 292 288 284 280 275 271 267 262 253 248 248 245 245 245 243
310 308 308 309 307 305 305 307 308 308 308 306 306 305 305 305 302 299 297 293 287 282 277 273 270 266 259 247 244 243 240 240 240
312 311 311 311 310 309 308 309 310 308 307 306 308 306 306 307 306 304 303 300 296 291 287 282 275 269 261 253 241 236 242 236 235
311 312 313 314 315 315 313 314 313 312 310 309 311 311 311 311 310 312 312 309 307 301 294 286 279 274 267 256 242 233 240 232 228
312 314 314 314 313 315 315 316 315 316 314 315 314 313 312 315 312 314 319 322 318 313 310 302 292 280 271 258 244 230 236 247 222
307 309 310 310 310 311 312 314 314 317 319 320 316 313 314 312 316 321 324 326 326 327 329 327 316 299 279 261 244 231 236 232 224
305 305 306 308 308 309 311 312 315 319 322 322 316 316 316 316 321 322 328 335 339 338 345 345 334 313 287 271 252 238 239 234 239
305 308 309 309 307 307 307 308 309 315 320 321 321 318 315 321 320 317 332 339 342 337 348 350 341 315 293 341 271 243 277 245 238
313 314 315 313 311 310 309 307 304 308 315 320 321 316 309 311 319 320 327 339 342 332 349 354 344 345 17 117 119 209 329 262 244
312 316 321 322 319 316 314 310 305 305 311 316 316 318 318 318 314 316 321 327 343 333 332 360 348 339 351 252 133 21 330 236 240
303 305 307 311 317 319 317 314 311 310 311 311 311 313 313 317 305 300 309 322 329 326 324 330 307 351 18 355 343 44 2 195 230
308 306 306 306 309 313 313 313 312 312 312 309 307 306 308 309 309 305 298 312 319 314 306 310 291 336 344 348 313 346 266 145 196